Tracking 20626 objects as of 8-Apr-2020
HD Live streaming from Space Station
objects crossing your sky now

ARIANE 1 DEB

Track ARIANE 1 DEB now!
10-day predictions


NORAD ID: 40780
Int'l Code: 1979-104AH
Perigee: 480.7 km
Apogee: 20,912.6 km
Inclination: 18.9 °
Period: 369.8 minutes
Semi major axis: 17067 km
RCS: Unknown
Launch date: December 24, 1979
Source: European Space Agency (ESA)
Launch site: FRENCH GUIANA (FRGUI)

Note: This is SATELLITE DEBRIS
aabbcc
Your satellite tracking list
Your tracking list is empty




NASA's NSSDC Master Catalog

Two Line Element Set (TLE):
1 40780U 79104AH  20096.19783048 +.00000014 +00000-0 +17510-3 0  9999
2 40780 018.8854 104.1565 5985548 299.8561 013.9611 03.89352032242498
Source of the keplerian elements: AFSPC